Regional Weather Roundup
Issued by NWS

Home | Current Version | Previous Version | Text Only | Print | Product List | Glossary Off
Versions: 1 2 3 4 5 6 7 8 9 10 11 12 13 14 15 16 17 18 19 20 21 22 23 24 25 26 27

000
ASUS45 KBOI 230010
RWRID
WEATHER ROUNDUP FOR IDAHO
NATIONAL WEATHER SERVICE BOISE ID
600 PM MDT TUE APR 22 2014

NOTE: "FAIR" INDICATES FEW OR NO CLOUDS BELOW 12000 FEET
WITH NO SIGNIFICANT WEATHER AND/OR OBSTRUCTIONS TO VISIBILITY

IDZ012-014-230100-
SOUTHWEST IDAHO


CITY           SKY/WX    TMP DP  RH WIND       PRES   REMARKS
BOISE          CLOUDY    48  41  76 NW10      29.75R
CALDWELL       CLOUDY    50  37  62 N10       29.80R
MOUNTAIN HOME  LGT RAIN  50  44  81 NW20      29.74R
$$

IDZ016-017-230100-
SOUTHCENTRAL IDAHO


CITY           SKY/WX    TMP DP  RH WIND       PRES   REMARKS
BURLEY         LGT RAIN  40  37  89 SW18G24   29.74R WCI  31
JEROME         LGT RAIN  42  40  92 S13       29.74S
TWIN FALLS     LGT RAIN  43  36  76 SW15      29.76R
$$

IDZ019>023-230100-
SOUTHEAST IDAHO


CITY           SKY/WX    TMP DP  RH WIND       PRES   REMARKS
IDAHO FALLS    LGT RAIN  43  40  89 S24G35    29.66R FOG
POCATELLO      LGT RAIN  43  40  89 SW18      29.71S
REXBURG        LGT RAIN  44  39  82 S22G29    29.64R
$$

IDZ006-010-011-018-031-032-230100-
CENTRAL IDAHO MOUNTAINS


CITY           SKY/WX    TMP DP  RH WIND       PRES   REMARKS
MCCALL         CLOUDY    35  32  88 S3        29.72R
HAILEY         CLOUDY    45  32  61 W8        29.69R
STANLEY          N/A     34  32  92 CALM      29.69F
SALMON         CLOUDY    45  37  76 CALM      29.65R
CHALLIS        LGT RAIN  45  32  60 SW12      29.65R
$$

IDZ002-004-006-007-026-230100-
NORTHERN IDAHO


CITY           SKY/WX    TMP DP  RH WIND       PRES   REMARKS
LEWISTON       CLOUDY    53  28  38 W17G24    29.79R
LOWELL         NOT AVBL
COEUR D`ALENE  CLOUDY    48  48 100 SW17      29.73F
MULLAN PASS    SNOW      31  31 100 VRB3      29.69S VSB 1/4
$$



USA.gov is the U.S. government's official web portal to all federal, state and local government web resources and services.